Погода в Ясногорске

Россия / Забайкальский край     50°52′26″N   115°41′31″E
темп.,
°C
ветер,
м/с
пор.,
м/с
влажн.,
%
обл.,
%
осадки,
мм/ч
давл.,
гПа
погр.,
м
16 мая, пн
пн1600:00+12зсз2235100 0.0 100717
03:00+9с22465 0.0 100713
06:00+7ссз22475 0.0 100711
09:00+13с233027 0.0 1005725
12:00+17зсз462454 0.0 10032198
15:00+20сз5817100 0.0 10003676
18:00+19сз791756 0.0 9993515
21:00+15зсз592716 0.0 999192
17 мая, вт
вт1700:00+12зсз22329 0.0 100117
03:00+10зсз22345 0.0 100213
06:00+9сз324291 0.0 100323
09:00+14ссз353257 0.0 1005630
12:00+18ссз57240 0.0 10052311
15:00+20ссз472176 0.0 10043227
18:00+21сз7719100 0.0 10023268
21:00+17юз4427100 0.0 100450
18 мая, ср
ср1800:00+16зюз352898 0.0 100566
03:00+14з4949100 0.0 1005316
06:00+11з486417 0.0 1006264
09:00+15зсз445088 0.0 1006595
12:00+19зсз783583 0.0 10061401
15:00+21сз7827100 0.0 10042984
18:00+20ссз992931 0.0 10052484
21:00+16с34422 0.0 100751
19 мая, чт
чт1900:00+13сз22471 0.0 100811
03:00+12сз225176 0.0 101011
06:00+11с225447 0.0 101218
09:00+17сз22355 0.0 1012453
12:00+22зсз562229 0.0 10102501
15:00+25з571868 0.0 10082779
18:00+26зсз79175 0.0 10053177
21:00+21зсз352897 0.0 100554
20 мая, пт
пт2000:00+18зсз41045100 0.3 1007254
03:00+14сз46515 0.3 1007114
06:00+12зсз22525 0.0 100813
09:00+18зсз563254 0.0 1008877
12:00+22зсз79220 0.0 10062531
15:00+25сз713145 0.0 10033841
18:00+25ссз9141226 0.0 10014107
21:00+20ссз511190 0.0 1003247